Black Gold Race - Loft Fly 10/12/2021

Station: Waller Tx - T Race

Distance: 1 Miles

Release: 12-Oct-2021 08:30

Weather Release:    Arrival:

Wind at Release:     Wind at Arrival:

Temp at Release: °    Temp at Arrival: °

Lofts: 166

Birds: 797

Clocked: 723

Good Luck to Everyone!
Drops Pos Breeder Pigeon Name Color Sex Ent Arrival Speed To Win Elg Pd
1 Tejano Loft - TX 0100-AU21-TEJA RB C 1 09:37:54.50 25.917 00:00:00 Yes
2 Grand Slam Racing Loft - TX 0171-AU21-DEME HOPEFULLY BB C 1 09:37:59.79 25.884 00:00:05 Yes
3 Nemelka Racing Pigeon Loft - UT 1201-AU21-NRPL WYD Son x Never Satisfied BB C 1 09:38:01.45 25.873 00:00:07 Yes
4 Aztec Loft - DE 0066-AU21-AZTE BB H 1 09:38:01.85 25.871 00:00:07 Yes
5 D-Kutac Loft - TX 4713-AU21-AA BB H 1 09:38:03.20 25.862 00:00:09 Yes
6 Lian Loft Vladimir 59 Perez - FL 59353-AU21-VLAD BB C 1 09:38:03.53 25.860 00:00:09 Yes
7 7 Cha Brothers Loft - MN 0431-AU21-UNIT 767 x Said In Spun Silver BB C 1 09:38:03.75 25.859 00:00:09 Yes
8 Grand Slam Racing Loft - TX 0499-AU21-GS Kevin's Pick 147 X 1339 PENC C 2 09:38:04.24 25.855 00:00:10 Yes
9 385 Connection - SC 1152-AU21-SCO 80001/80225 BBWF C 1 09:38:04.76 25.852 00:00:10 Yes
10 The Chosen Few - MI 83155-AU21-ARPU 8190 x 79 BBWF H 1 09:38:05.00 25.851 00:00:10 Yes
11 Amer Loft - GA 0248-IF21-AFL PENC C 1 09:38:07.18 25.837 00:00:13 Yes
12 Orlando Golden Classic - FL 0519-AU21-ROBY DOUBLE KANNIBAL x LA 40 DC C 1 09:38:07.68 25.834 00:00:13 Yes
13 Monte Valley Loft - TX 0300-AU21-GSWC BB C 1 09:38:08.23 25.830 00:00:14 Yes
14 K-P-L-Family Loft - MI 0090-AU21-KPL BBSP H 1 09:38:08.55 25.828 00:00:14 Yes
14 A-Lo-Loft - NY 2093-AU21-ALOL ☯️☯️☯️☯️ BB H 1 09:38:08.58 25.828 00:00:14 Yes
16 Apache South - NM 1581-AU21-AA BB H 1 09:38:08.71 25.827 00:00:14 Yes
17 Tx Lin Loft - TX 0087-AU21-TXLI DCWF H 1 09:38:09.27 25.824 00:00:15 Yes
18 A P C Loft - TX 0239-AU21-APC GRIZ H 1 09:38:09.30 25.823 00:00:15 Yes
19 Emmalyn & Carelyn Loft - CA 0740-AU21-CEYX ~ CEYX 740 ~ BBWF H 1 09:38:09.57 25.822 00:00:15 Yes
19 Jpd Loft&vasquez Loft - TX 29287-AU21-AA OPAL C 1 09:38:09.58 25.822 00:00:15 Yes
21 Da-Dong - WI 0649-AU21-RAC 19843-19097 BB C 1 09:38:09.97 25.819 00:00:15 Yes
21 Tex-Mex Loft - TX 1106-AU21-NSL Chingon / Chingona DCSP C 1 09:38:09.98 25.819 00:00:15 Yes
23 F.O.B. Greek - RI 1555-AU21-RI 32808 x 32817 DC H 1 09:38:10.27 25.817 00:00:16 Yes
24 Rambo & Barreto - FL 2298-AU21-RAMB BC H 1 09:38:10.55 25.816 00:00:16 Yes
25 Monte Valley Loft - TX 21590-AU21-WIN BW 09 BB C 2 09:38:10.70 25.815 00:00:16 Missing
26 Laz Valenzuela - CA 2106-AU21-ROQU BB C 1 09:38:14.83 25.789 00:00:20 Yes
27 The Chosen Few - MI 83187-AU21-ARPU 9047 x 7224 BBWF C 2 09:38:15.32 25.786 00:00:21 Yes
28 Gloriosos Loft - TX 4488-AU21-FOYS BC C 1 09:38:18.58 25.765 00:00:24 Yes
29 V-Afamilyloft - TX 23788-AU21-AA DC H 1 09:38:20.93 25.750 00:00:26 Yes
30 Nanez Family Loft - WI 1154-AU21-NANE BC C 1 09:38:22.94 25.738 00:00:28 Yes
31 Amer Loft - GA 0212-IF21-AFL BB H 2 09:38:23.56 25.734 00:00:29 Yes
32 385 Connection - SC 1142-AU21-SCO 80001/80225 BB C 2 09:38:23.97 25.731 00:00:29 Missing
33 Amer Loft - GA 0228-IF21-AFL PENC H 3 09:38:26.07 25.718 00:00:32 Yes
34 Aztec Loft - DE 0207-AU21-AZTE BB H 2 09:38:26.35 25.716 00:00:32 Yes
35 Sun Loft - MA 2116-AU21-SUNL BB C 1 09:38:27.75 25.708 00:00:33 Yes
36 Ruiz Loft - TX 0137-AU21-DALL BB C 1 09:38:30.63 25.689 00:00:36 Yes
37 America's Dream Loft - IL 1213-AU21-RRV BC C 1 09:38:31.71 25.683 00:00:37 Yes
38 Jpl Loft - TX 25509-AU21-AA SIL C 1 09:38:39.79 25.632 00:00:45 Yes
39 5 Amigos - FL 2222-AU21-GHC DCWF H 1 09:38:43.44 25.610 00:00:49 Yes
40 Nanez Family Loft - WI 1502-AU21-NANE BB C 2 09:38:56.60 25.528 00:01:02 Yes
41 Dave Dudley/Ron Moden - CO 1437-AU21-SD BB C 1 09:38:56.87 25.527 00:01:02 Missing
42 FreebyrdTapia Syndicate - NM 4199-AU21-AA Lone Star BBSP H 1 09:39:01.46 25.498 00:01:07 Yes
43 Zheng Family Loft - NY 0902-AU21-ZFL Venus 902 BB H 1 09:39:07.34 25.462 00:01:13 Yes
44 Texas Loft - TX 25563-AU21-ARPU BC C 1 09:39:09.35 25.450 00:01:15 Yes
45 Westfall Loft - MO 0082-AU21-WMW PCSP C 1 09:39:09.97 25.446 00:01:15 Yes
46 Tex-Mex Loft - TX 0045-AU21-NOME BB C 2 09:39:13.84 25.422 00:01:19 Yes
47 Peters - GA 0312-AU21-NA PETERS 312-2 BB H 1 09:39:16.08 25.409 00:01:21 Yes
48 Tx Lin Loft - TX 0067-AU21-TXLI BB C 2 09:39:16.96 25.403 00:01:22 Yes
49 Ron Talbot /Jimmy Fernandez - LA 4292-AU21-AA SILV C 1 09:39:17.57 25.399 00:01:23 Yes
50 Arandas Loft - TX 26223-AU21-JEDD SLAT C 1 09:39:20.11 25.384 00:01:26 Yes
51 Vive Loft - TX 6235-AU21-ARPU BB C 1 09:39:28.37 25.334 00:01:34 Yes
52 GM9LOFT - CA 9295-AU21-JEDD TEAM MANOK BC H 1 09:39:28.48 25.333 00:01:34 Yes
53 Tx Dash For Cash Olr - TX 0075-AU21-SHIF Taylor Fit BBWF H 1 09:39:30.40 25.321 00:01:36 Yes
54 JuliettaFamilyLoft - FL 0071-AU21-JULI BB H 1 09:39:52.24 25.189 00:01:58 Yes
55 Da-Dong - WI 0648-AU21-RAC 19843-19097 BB C 2 09:39:56.86 25.162 00:02:02 Yes
56 Blue Blood - TX 26897-AU21-AA BB C 1 09:40:00.63 25.139 00:02:06 Yes
57 All Glory To God - NM 0214-AU21-JEDD BB C 1 09:40:01.00 25.137 00:02:06 Yes
58 Texas Loft - TX 25553-AU21-ARPU BC H 2 09:40:01.74 25.132 00:02:07 Yes
59 Super Line Loft - CA 25952-AU21-JEDD BB H 1 09:40:04.30 25.117 00:02:10 Yes
60 G T Family Loft - NM 0447-AU21-GT PAIR#1 DCWF C 1 09:40:05.58 25.109 00:02:11 Yes
61 Triple T Loft - TX 5365-AU21-ARPU BC C 1 09:40:06.25 25.105 00:02:12 Yes
62 Ortega Loft - TX 3328-AU21-TEXA DCWF H 1 09:40:07.48 25.098 00:02:13 Yes
62 Chino Vasquez Loft - FL 2247-AU21-SUNS BB H 1 09:40:07.50 25.098 00:02:13 Yes
64 Apache South - NM 1586-AU21-AA PENC C 2 09:40:07.88 25.096 00:02:13 Yes
65 Pan Family Loft - VA 23048-AU21-FOYS BB C 1 09:40:08.63 25.091 00:02:14 Yes
66 Sageness Loft - ON 2304-CU21-CRPU genetic AAA BB C 1 09:40:09.43 25.087 00:02:15 Yes
67 Any Given Day Loft - TX 21134-AU21-ANYG DCWF H 1 09:40:10.60 25.080 00:02:16 Yes
68 C F L - LA 1046-AU21-CFL BB H 1 09:40:11.92 25.072 00:02:17 Missing
69 America's Dream Loft - IL 1215-AU21-RRV BB C 2 09:40:13.08 25.065 00:02:19 Yes
70 Genesis Syndicate Loft - AZ 0200-AU21-GENE DC C 1 09:40:15.24 25.052 00:02:21 Yes
71 Ryano's Loft - SC 9771-AU21-FOYS DC H 1 09:40:15.66 25.049 00:02:21 Yes
72 G T Family Loft - NM 0443-AU21-GT PAIR#9 BBWF C 2 09:40:17.02 25.041 00:02:23 Yes
73 Jones Family Loft - TX 1317-AU21-JFL GRIZ C 1 09:40:18.67 25.032 00:02:24 Yes
74 Cristos Loft - TX 0659-AU21-DALL GRIZ H 1 09:40:19.11 25.029 00:02:25 Yes
75 Ferrer Family Loft - TX 6225-AU21-ARPU BB C 1 09:40:22.80 25.007 00:02:28 Yes
76 Sunshine Loft 2 - SC 0324-AU21-PAK 568 - Pak 170 - 562 Jr BB H 1 09:40:23.22 25.005 00:02:29 Yes
77 Cuevas Classic - TX 0817-AU21-DALL DC H 1 09:40:23.66 25.002 00:02:29 Yes
78 Balikbayan Express - WA 8773-AU21-JEDD DCWF C 1 09:40:25.26 24.993 00:02:31 Yes
79 Dong Family Loft - NY 2101-IF21-TORR BB C 1 09:40:25.88 24.989 00:02:31 Yes
79 Cicio's Loft - IL 0053-AU21-CICI BCWF C 1 09:40:25.89 24.989 00:02:31 Yes
81 Peters - GA 0345-AU21-NA PETERS 345-3 BB C 2 09:40:28.47 24.974 00:02:34 Yes
82 Freddie Majors - TX 2662-AU21-TEXA Rory BB C 1 09:40:28.96 24.971 00:02:34 Yes
83 Arandas Loft - TX 26211-AU21-JEDD BB H 2 09:40:29.07 24.970 00:02:35 Yes
84 Texas Loft - TX 25538-AU21-ARPU BB C 3 09:40:32.71 24.949 00:02:38 Yes
85 Da-Dong - WI 0650-AU21-RAC 9163-994 BB H 3 09:40:33.68 24.943 00:02:39 Yes
86 M H Loft - TX 19357-AU21-AA BC C 1 09:40:33.79 24.942 00:02:39 Yes
87 Any Given Day Loft - TX 21115-AU21-ANYG BC C 2 09:40:34.80 24.936 00:02:40 Yes
88 Rodriguez Loft - TX 21536-AU21-WIN APOCALYSE-BUCKET #1 BB H 1 09:40:37.15 24.922 00:02:43 Yes
89 Santa Clara Jpd loft - FL 29270-AU21-AA BB C 1 09:40:37.55 24.920 00:02:43 Yes
90 Tejano Loft - TX 2101-AU21-TEJA RBWF C 2 09:40:37.90 24.918 00:02:43 Yes
91 Pan Family Loft - VA 23062-AU21-FOYS BB H 2 09:40:38.94 24.912 00:02:44 Yes
92 Super Line Loft - CA 25947-AU21-JEDD BB H 2 09:40:40.83 24.901 00:02:46 Yes
93 Florida Pigeon Derby - FL 0022-AU21-BRIC BB C 1 09:40:41.82 24.895 00:02:47 Yes
94 Tex-Mex Loft - TX 1105-AU21-NSL Duke / Muñeca BBWF H 3 09:40:43.26 24.887 00:02:49 Yes
95 Xiao Loft - WI 0980-AU21-RAC BB H 1 09:40:43.77 24.884 00:02:49 Yes
96 Texas Holiday Derby - TX 1010-AU21-NSL 305 X 6314 BC H 1 09:40:45.24 24.875 00:02:51 Yes
97 Grand Slam Racing Loft - TX 0490-AU21-GS 1217 X 1279 PWF C 3 09:40:45.66 24.872 00:02:51 Yes
98 Genesis Syndicate Loft - AZ 0206-AU21-GENE BBSP H 2 09:40:46.39 24.868 00:02:52 Yes
99 M H Loft - TX 19348-AU21-AA BC H 2 09:41:18.36 24.682 00:03:24 Yes
100 Chevy Power - TX 21407-AU21-PDP BB C 1 09:41:20.94 24.667 00:03:26 Missing

There are 723 bird records

Note: These Race Results are unofficial and subject to change until verified by the Race Committee and declared final.

 

Ship Birds to:

Black Gold Race attn: Yoanny

31240 Pohl Rd
Waller TX 77484

cell 832-673-5350

email: blackgoldrace@gmail.com


windy
Click for Forecast for 77484 from weatherUSA